Location: Gälforsberget
(66.6500°N, 22.4167°E)
Time: 22:46:30
(UTC+00:00)

Meteor 2-1 Rocket - Pass Details

Date: 11 April 2026
Orbit: 824 x 910 km, 81.3° (Epoch: 13 May)

Event Time Altitude Azimuth Distance (km) Brightness Sun altitude
Exits shadow 22:57:55 21° 187° (S) 1,894 5.4 -14.6°
Maximum altitude 23:01:56 74° 106° (ESE) 935 4.4 -14.5°
Drops below altitude 10° 23:07:45 10° 23° (NNE) 2,556 8.0 -14.5°
Sets 23:10:11 0° 22° (NNE) 3,485 9.1 -14.4°
